DW2921 Weather Reports


Display with metric or nautical units.
time (UTC)temp
F
wind
direction
speed
MPH
gust
MPH
rain 1hr
in
rain 24hr
in
rain mn
in
humidity
%
barometer
mb
20260831211104 92 246 0.0 0.0 0.00 0.00 0.00 50 1013.0
20260831210105 92 245 0.0 0.0 0.00 0.00 0.00 50 1013.0
20260831204104 92 60 0.0 0.0 0.00 0.00 0.00 50 1013.0
20260831203104 91 60 0.0 0.0 0.00 0.00 0.00 50 1013.0
20260831202104 89 60 0.0 0.0 0.00 0.00 0.00 50 1013.0
20260831201104 89 60 0.0 0.0 0.00 0.00 0.00 50 1013.0
20260831200105 89 60 0.0 0.0 0.00 0.00 0.00 50 1013.0
20260831194104 90 60 0.0 0.0 0.00 0.00 0.00 50 1013.0
20260831193104 91 60 0.0 0.0 0.00 0.00 0.00 50 1013.0
20260831190104 91 45 0.0 0.0 0.00 0.00 0.00 50 1013.0
20260831184104 94 73 0.0 0.0 0.00 0.00 0.00 50 1013.0
20260831182104 93 66 0.0 0.0 0.00 0.00 0.00 50 1013.0
20260831181104 92 122 0.0 0.0 0.00 0.00 0.00 50 1013.0
20260831175104 91 244 0.0 0.0 0.00 0.00 0.00 50 1013.0
20260831174104 90 206 0.0 0.0 0.00 0.00 0.00 50 1013.0
20260831173104 88 247 0.0 0.0 0.00 0.00 0.00 50 1013.0
20260831172104 89 221 0.0 0.0 0.00 0.00 0.00 50 1013.0
20260831171104 87 321 0.0 0.0 0.00 0.00 0.00 50 1013.0
20260831170104 89 250 0.0 0.0 0.00 0.00 0.00 50 1013.0
20260831165104 89 203 0.0 0.0 0.00 0.00 0.00 50 1013.0
20260831164104 87 203 0.0 0.0 0.00 0.00 0.00 50 1013.0
20260831163104 87 274 0.0 0.0 0.00 0.00 0.00 50 1013.0
20260831162104 86 235 0.0 0.0 0.00 0.00 0.00 50 1013.0
20260831161104 85 270 0.0 0.0 0.00 0.00 0.00 50 1013.0
20260831160104 85 200 0.0 0.0 0.00 0.00 0.00 50 1013.0
20260831155104 85 191 0.0 0.0 0.00 0.00 0.00 50 1013.0
20260831154104 84 184 0.0 0.0 0.00 0.00 0.00 50 1013.0
20260831153104 83 194 0.0 0.0 0.00 0.00 0.00 50 1013.0
20260831151104 82 222 0.0 0.0 0.00 0.00 0.00 50 1013.0
20260831150105 81 208 0.0 0.0 0.00 0.00 0.00 50 1013.0
20260831145104 81 223 0.0 0.0 0.00 0.00 0.00 50 1013.0
20260831144104 80 200 0.0 0.0 0.00 0.00 0.00 50 1013.0
20260831141104 78 182 0.0 0.0 0.00 0.00 0.00 50 1013.0
20260831140105 78 176 0.0 0.0 0.00 0.00 0.00 50 1013.0
20260831135104 77 175 0.0 0.0 0.00 0.00 0.00 50 1013.0
20260831134104 76 175 0.0 0.0 0.00 0.00 0.00 50 1013.0
20260831133104 76 189 0.0 0.0 0.00 0.00 0.00 50 1013.0
20260831132104 75 193 0.0 0.0 0.00 0.00 0.00 50 1013.0
20260831131104 75 193 0.0 0.0 0.00 0.00 0.00 50 1013.0
20260831130105 74 193 0.0 0.0 0.00 0.00 0.00 50 1013.0
20260831125104 73 193 0.0 0.0 0.00 0.00 0.00 50 1013.0
20260831124104 73 193 0.0 0.0 0.00 0.00 0.00 50 1013.0
20260831123104 72 193 0.0 0.0 0.00 0.00 0.00 50 1013.0
20260831122104 72 193 0.0 0.0 0.00 0.00 0.00 50 1013.0
20260831121105 72 193 0.0 0.0 0.00 0.00 0.00 50 1013.0
20260831120105 71 193 0.0 0.0 0.00 0.00 0.00 50 1013.0
20260831112104 71 193 0.0 0.0 0.00 0.00 0.00 50 1013.0
20260831111104 71 193 0.0 0.0 0.00 0.00 0.00 50 1013.0
20260831110105 71 193 0.0 0.0 0.00 0.00 0.00 50 1013.0
20260831105104 71 193 0.0 0.0 0.00 0.00 0.00 50 1013.0
20260831104104 71 193 0.0 0.0 0.00 0.00 0.00 50 1013.0
20260831102104 72 193 0.0 0.0 0.00 0.00 0.00 50 1013.0
20260831101105 72 193 0.0 0.0 0.00 0.00 0.00 50 1013.0
20260831095104 72 193 0.0 0.0 0.00 0.00 0.00 50 1013.0
20260831094104 72 193 0.0 0.0 0.00 0.00 0.00 50 1013.0
20260831093104 73 193 0.0 0.0 0.00 0.00 0.00 50 1013.0
20260831091104 73 193 0.0 0.0 0.00 0.00 0.00 50 1013.0
20260831090105 73 193 0.0 0.0 0.00 0.00 0.00 50 1013.0
20260831084104 73 193 0.0 0.0 0.00 0.00 0.00 50 1013.0
20260831083100 73 193 0.0 0.0 0.00 0.00 0.00 50 1013.0
20260831081100 74 193 0.0 0.0 0.00 0.00 0.00 50 1013.0
20260831080100 74 193 0.0 0.0 0.00 0.00 0.00 50 1013.0
20260831075100 74 193 0.0 0.0 0.00 0.00 0.00 50 1013.0
20260831074059 74 193 0.0 0.0 0.00 0.00 0.00 50 1013.0
20260831073059 74 193 0.0 0.0 0.00 0.00 0.00 50 1013.0
20260831072100 74 193 0.0 0.0 0.00 0.00 0.00 50 1013.0
20260831071059 75 193 0.0 0.0 0.00 0.00 0.00 50 1013.0
20260831070100 75 193 0.0 0.0 0.00 0.00 0.00 50 1013.0
20260831065059 75 193 0.0 0.0 0.00 0.00 0.00 50 1013.0
20260831064100 76 193 0.0 0.0 0.00 0.00 0.00 50 1013.0
20260831063059 76 193 0.0 0.0 0.00 0.00 0.00 50 1013.0
20260831062059 76 193 0.0 0.0 0.00 0.00 0.00 50 1013.0
20260831061100 76 193 0.0 0.0 0.00 0.00 0.00 50 1013.0
20260831060100 76 193 0.0 0.0 0.00 0.00 0.00 50 1013.0
20260831055100 76 193 0.0 0.0 0.00 0.00 0.00 50 1013.0
20260831054059 76 193 0.0 0.0 0.00 0.00 0.00 50 1013.0
20260831053059 77 193 0.0 0.0 0.00 0.00 0.00 50 1013.0
20260831052100 77 193 0.0 0.0 0.00 0.00 0.00 50 1013.0
20260831050100 77 193 0.0 0.0 0.00 0.00 0.00 50 1013.0
20260831045059 77 193 0.0 0.0 0.00 0.00 0.00 50 1013.0
20260831044100 78 193 0.0 0.0 0.00 0.00 0.00 50 1013.0
20260831043059 78 193 0.0 0.0 0.00 0.00 0.00 50 1013.0
20260831042100 78 193 0.0 0.0 0.00 0.00 0.00 50 1013.0
20260831041059 78 193 0.0 0.0 0.00 0.00 0.00 50 1013.0
20260831035100 79 193 0.0 0.0 0.00 0.00 0.00 50 1013.0
20260831034100 79 193 0.0 0.0 0.00 0.00 0.00 50 1013.0
20260831033100 79 193 0.0 0.0 0.00 0.00 0.00 50 1013.0
20260831031100 80 193 0.0 0.0 0.00 0.00 0.00 50 1013.0
20260831030100 80 193 0.0 0.0 0.00 0.00 0.00 50 1013.0
20260831025059 80 193 0.0 0.0 0.00 0.00 0.00 50 1013.0
20260831024100 81 193 0.0 0.0 0.00 0.00 0.00 50 1013.0
20260831023100 81 193 0.0 0.0 0.00 0.00 0.00 50 1013.0
20260831022100 81 193 0.0 0.0 0.00 0.00 0.00 50 1013.0
20260831020100 82 193 0.0 0.0 0.00 0.00 0.00 50 1013.0
20260831015100 82 193 0.0 0.0 0.00 0.00 0.00 50 1013.0
20260831014100 82 193 0.0 0.0 0.00 0.00 0.00 50 1013.0
20260831013059 83 193 0.0 0.0 0.00 0.00 0.00 50 1013.0
20260831011100 83 193 0.0 0.0 0.00 0.00 0.00 50 1013.0
20260831010101 84 193 0.0 0.0 0.00 0.00 0.00 50 1013.0
20260831005100 84 193 0.0 0.0 0.00 0.00 0.00 50 1013.0
20260831004100 84 193 0.0 0.0 0.00 0.00 0.00 50 1013.0
20260831001100 85 193 0.0 0.0 0.00 0.00 0.00 50 1013.0
20260831000100 85 193 0.0 0.0 0.00 0.00 0.00 50 1013.0
20260830235100 86 193 0.0 0.0 0.00 0.00 0.00 50 1013.0
20260830234100 87 193 0.0 0.0 0.00 0.00 0.00 50 1013.0
20260830233100 87 193 0.0 0.0 0.00 0.00 0.00 50 1013.0
20260830231100 87 193 0.0 0.0 0.00 0.00 0.00 50 1013.0
20260830225100 88 193 0.0 0.0 0.00 0.00 0.00 50 1013.0
20260830224100 89 193 0.0 0.0 0.00 0.00 0.00 50 1013.0
20260830222059 89 193 0.0 0.0 0.00 0.00 0.00 50 1013.0
20260830221100 90 193 0.0 0.0 0.00 0.00 0.00 50 1013.0
20260830220100 91 193 0.0 0.0 0.00 0.00 0.00 50 1013.0
20260830215100 91 193 0.0 0.0 0.00 0.00 0.00 50 1013.0
20260830213100 93 187 0.0 0.0 0.00 0.00 0.00 50 1013.0
20260830212100 94 225 0.0 0.0 0.00 0.00 0.00 50 1013.0